Overview Statistics Trail Chart Weather Telemetry Raw packets
 

This is the latest recevied weather packets stored in our database for station/object DK6GC-10. If no packets are shown the sender has not sent any weather packets the latest 10 day(s).

<< 19 20 21 22 23 24 25 >>
Time Temp. Humidity Pressure Rain* Wind** Luminosity Snow
1788240621 14.44° C 98% 1023.3 hPa - - - -
1788239721 13.89° C 97% 1023.1 hPa - - - -
1788238821 13.89° C 100% 1023.1 hPa - - - -
1788237921 13.33° C 100% 1023 hPa - - - -
1788237021 13.33° C 99% 1022.9 hPa - - - -
1788236120 13.33° C 100% 1023 hPa - - - -
1788235220 13.89° C 100% 1022.9 hPa - - - -
1788234320 13.89° C 98% 1022.9 hPa - - - -
1788233420 13.89° C 99% 1022.9 hPa - - - -
1788232520 14.44° C 99% 1022.8 hPa - - - -
1788231620 14.44° C 99% 1022.9 hPa - - - -
1788230719 14.44° C 99% 1022.8 hPa - - - -
1788229819 14.44° C 99% 1022.8 hPa - - - -
1788228919 15° C 98% 1022.9 hPa - - - -
1788228019 15° C 98% 1022.7 hPa - - - -
1788227119 15° C 98% 1022.9 hPa - - - -
1788226219 15.56° C 96% 1022.8 hPa - - - -
1788225318 15.56° C 97% 1022.8 hPa - - - -
1788224418 15.56° C 96% 1022.6 hPa - - - -
1788223518 15° C 96% 1022.6 hPa - - - -
1788222618 15.56° C 93% 1022.5 hPa - - - -
1788221717 16.11° C 91% 1022.5 hPa - - - -
1788220823 16.11° C 89% 1022.5 hPa - - - -
1788219923 17.22° C 85% 1022.4 hPa - - - -
1788219022 17.22° C 87% 1022.4 hPa - - - -

* Rain since midnight (hover to see other rain measurements)
** Current wind speed in m/s (hover to see current wind gust speed)